Regional Weather Roundup
Issued by NWS

Home | Current Version | Previous Version | Text Only | Print | Product List | Glossary Off
Versions: 1 2 3 4 5 6 7 8 9 10 11 12 13 14 15 16 17 18 19 20 21 22 23 24 25 26 27 28 29 30 31 32 33 34 35 36 37 38 39 40 41 42 43 44 45 46 47 48 49 50

013
ASUS43 KTOP 270908
RWRKS

WEATHER ROUNDUP FOR KANSAS
NATIONAL WEATHER SERVICE GOODLAND KS
400 AM CDT MON MAR 27 2017

NOTE:  "FAIR" INDICATES FEW OR NO CLOUDS BELOW 12,000 FEET WITH NO
SIGNIFICANT WEATHER AND/OR OBSTRUCTIONS TO VISIBILITY.

KSZ001>006-013>018-027>032-041>047-271000-
NORTHWEST KANSAS

CITY           SKY/WX    TMP DP  RH WIND       PRES   REMARKS
GOODLAND       CLEAR     35  34  96 W9        29.92F
HAYS             N/A     46  44  93 N5        29.92F
HILL CITY      CLEAR     36  36 100 NW6       29.94S FOG
RUSSELL        CLOUDY    46  44  93 N7        29.91S
$$

KSZ061>065-074>080-084>089-271000-
SOUTHWEST KANSAS

CITY           SKY/WX    TMP DP  RH WIND       PRES   REMARKS
DODGE CITY     CLOUDY    41  40  96 NW13      29.92S
ELKHART          N/A     35  29  79 W6          N/A
GARDEN CITY    CLEAR     35  34  96 NW9       29.94S
LIBERAL        CLEAR     37  30  75 NW7       29.94S
PRATT          CLOUDY    43  42  96 N13       29.89S
$$

KSZ066>073-081>083-090>101-271000-
SOUTHEAST KANSAS

CITY           SKY/WX    TMP DP  RH WIND       PRES   REMARKS
CHANUTE        CLOUDY    51  49  92 NW9       29.80R
COFFEYVILLE    TSTM      53  52  96 E3        29.76S FOG
HUTCHINSON     CLOUDY    47  46  97 N9        29.86F
MEDICINE LODGE   N/A     47  45  93 N12       29.86F
NEWTON         CLOUDY    46  45  96 N16       29.87S
PARSONS        LGT RAIN  54  52  93 N7        29.77R
WICHITA INTL   CLOUDY    48  47  96 NW12      29.85R
WICHITA JABRA  CLOUDY    47  47 100 NW12      29.85S
WICHITA MCCONL CLOUDY    48  46  93 N10       29.84R
WINFIELD       CLOUDY    50  48  93 N16       29.83R
$$

KSZ007>012-019>026-033>040-048>060-102>105-271000-
NORTHEAST KANSAS

CITY           SKY/WX    TMP DP  RH WIND       PRES   REMARKS
CONCORDIA      CLOUDY    45  45 100 N7        29.92S
EMPORIA        CLOUDY    47  47 100 N8        29.83S FOG
LAWRENCE       CLOUDY    47  46  97 N6        29.84R
MANHATTAN      LGT RAIN  47  45  93 N6        29.89R FOG
MARYSVILLE     CLOUDY    45  43  93 N6        29.91R FOG
OLATHE IND     CLOUDY    47  45  93 NE13G23   29.80F
OLATHE EXE     CLOUDY    46  46 100 NE13G18   29.79F
SALINA         CLOUDY    48  46  93 N13       29.90S
TOPEKA BILLARD RAIN      46  46 100 N7        29.85S FOG
TOPEKA FORBES  LGT RAIN  47  46  97 N9        29.85R FOG
$$




USA.gov is the U.S. government's official web portal to all federal, state and local government web resources and services.